Location: Ferchesar
(52.6477°N, 12.4298°E)
Time: 04:44:17
(UTC+01:00)

Vanguard 3 - Pass Details

Date: 14 December 2021
Orbit: 508 x 3260 km, 33.3° (Epoch: 21 January)

Event Time Altitude Azimuth Distance (km) Brightness Sun altitude
Rises 06:01:32 0° 269° (W) 7,008 - -18.8°
Reaches altitude 10° 06:07:04 10° 260° (W) 6,143 - -18.0°
Exits shadow 06:08:28 13° 257° (WSW) 5,938 11.0 -17.7°
Maximum altitude 06:22:04 29° 211° (SSW) 4,651 10.8 -15.8°
Drops below altitude 10° 06:35:17 10° 160° (SSE) 5,358 11.9 -13.9°
Sets 06:39:43 0° 150° (SSE) 6,010 12.5 -13.2°
